TITAN 3A TRANSTAGE R/B, 1359

Orbit data source: Space-Track

TITAN 3A TRANSTAGE R/B, 1359 is space debris in LEO originally from a launch on Thu, 06 May 1965 UTC via a TITAN IIIA launch vehicle from the Air Force Eastern Test Range (AFETR). Debris objects in space refer to the collection of defunct objects orbiting the Earth. Examples of debris include non-operational satellites, rocket bodies, and fragments generated from explosions, collisions, or faulty payload assembly.

Loading next visibility...
Identifier
1359, 1965-034A
Orbit
LEO
Country
Flag of USUS
Related business
Manufacturer
Martin Marietta
Mission
Spacecraft
Bus & Motor
Unknown
Mass
2,302 kg wet, 124 kg dry
Launch date (UTC)
1965-05-06 (60 years ago)
Launch vehicle
TITAN IIIA
Launch site
Air Force Eastern Test Range (AFETR)
Object type
Payload
Rocket body
Debris
Shape & HBR
Cyl + 2 Nozzle, 3.0 m
Radar Cross Section
18.358 m², Large (>1 m²)

Expand to show TLE details & history
Last TLE update: 1 day ago

TLE from 1 day ago
0 TITAN 3A TRANSTAGE R/B
1 01359U 65034A   25242.00918759  .00000000  00000-0 -22648-2 0  9995
2 01359  32.1244 113.4416 0495340 220.6755 135.5691  9.17134081 21926
Epoch: 2025-08-30T00:13Z
TLE epoch observation values (Epoch: 2025-08-30T00:13:13.807Z)
Latitude
-0.00002°
Longitude
131.6844°
Altitude
3,613.631 km
Speed
6.202 km/s
True Right ascension
07h 33m 45s
True Declination
0° 00' 00"
Sunlit
Object was in daylight at epoch
Visualization orbit readout
Latitude
Unknown
Longitude
Unknown
Altitude
Unknown
Speed
Unknown
Apparent Right ascension
Unknown
Apparent Declination
Unknown
Sunlit
N/A
Visualization observer readout
Local Sidereal Time
17:25:50
Azimuth
Unknown
Elevation
Unknown
Doppler factor
Unknown
Orbital elements
Apogee altitude
3,742.993 km
Perigee altitude
2,787.636 km
Semi-major axis
9,643.452 km
Eccentricity
0.04953
Inclination
32.1244°
RAAN
113.4416°
Arg. of periapsis
220.6755°
True anomaly
139.3714°
Mean anomaly
135.5691°
Eccentric anomaly
137.48696°
Mean motion
2.29189 °/min
Orbital period
157.08 mins
BSTAR
-0.0022648
Loading maneuver chart data...
Computing Atmospheric mass density...
Loading historical data...
Loading historical data...
Loading historical data...
Loading historical data...
Loading historical data...
Loading historical data...
Loading historical data...
Other satellites on launch #34 in the year 1965 (1965-05-06 UTC)

Documentation

Showing up to 5 results
|